Findlay, OH

12:08 AM EDT on August 29, 2016 (GMT -0400)
Findlay

Weather History for KFDY - October, 2013

Change the Weather History Date:

Friday, October 11, 2013

  Actual Average Record
Temperature  
Mean Temperature 60 °F -  
Max Temperature 75 °F 61 °F 84 °F (2008)
Min Temperature 44 °F 42 °F 24 °F (1964)
Degree Days  
Heating Degree Days 6    
Growing Degree Days 10 (Base 50)    
Moisture  
Dew Point 48 °F    
Average Humidity 75    
Maximum Humidity 100    
Minimum Humidity 35    
Precipitation  
Precipitation 0.00 in - - ()
Sea Level Pressure  
Sea Level Pressure 30.08 in    
Wind  
Wind Speed 2 mph (ENE)    
Max Wind Speed 9 mph    
Max Gust Speed -    
Visibility 8 miles    
Events Fog    
Averages and records for this station are not official NWS values.
T = Trace of Precipitation, MM = Missing Value Source: NWS Daily Summary

Daily Weather History Graph

Daily Weather History Graph

Search for Another Location

Airport or City:

Trip Planner

Search our weather history database for the weather conditions in past years. The results will help you decide how hot, cold, wet, or windy it might be!

Date:

Astronomy

Oct. 11, 2013 Rise Set
Actual Time 7:42 AM EDT 6:59 PM EDT
Civil Twilight 7:14 AM EDT 7:27 PM EDT
Nautical Twilight 6:42 AM EDT 7:59 PM EDT
Astronomical Twilight 6:10 AM EDT 8:31 PM EDT
Moon 2:24 PM EDT (10/11) No Moon Set
Length of Visible Light 12h 13m
Length of Day
11h 17m
Waxing Crescent, 47% of the Moon is Illuminated
Oct 11
Waxing Crescent
Oct 11
First Quarter
Oct 18
Full
Oct 26
Last Quarter
Nov 3
New

Hourly Weather History & Observations

Time (EDT) Temp. Dew Point Humidity Pressure Visibility Wind Dir Wind Speed Gust Speed Precip Events Conditions
12:53 AM 53.1 °F 48.0 °F 83% 30.09 in 10.0 mi NE 3.5 mph - N/A   Clear
1:53 AM 52.0 °F 46.9 °F 83% 30.09 in 10.0 mi Calm Calm - N/A   Clear
2:53 AM 48.0 °F 46.0 °F 93% 30.08 in 10.0 mi Calm Calm - N/A   Clear
3:53 AM 48.0 °F 46.0 °F 93% 30.07 in 10.0 mi Calm Calm - N/A   Clear
4:53 AM 48.9 °F 46.9 °F 93% 30.07 in 9.0 mi Calm Calm - N/A   Clear
5:53 AM 46.9 °F 45.0 °F 93% 30.08 in 10.0 mi Calm Calm - N/A   Clear
6:53 AM 46.9 °F 45.0 °F 93% 30.10 in 7.0 mi NNW 3.5 mph - N/A   Clear
7:53 AM 46.9 °F 45.0 °F 93% 30.11 in 3.0 mi Calm Calm - N/A   Clear
8:02 AM 44.6 °F 44.6 °F 100% 30.12 in 1.5 mi Calm Calm - N/A   Clear
8:09 AM 44.6 °F 44.6 °F 100% 30.12 in 0.5 mi Calm Calm - N/A Fog Fog
8:19 AM 46.4 °F 44.6 °F 93% 30.12 in 1.8 mi Calm Calm - N/A   Clear
8:29 AM 46.4 °F 46.4 °F 100% 30.12 in 3.0 mi Calm Calm - N/A   Clear
8:53 AM 53.1 °F 48.9 °F 86% 30.12 in 4.0 mi Calm Calm - N/A   Clear
9:53 AM 59.0 °F 51.1 °F 75% 30.12 in 9.0 mi Calm Calm - N/A   Clear
10:53 AM 62.1 °F 51.1 °F 67% 30.12 in 10.0 mi ENE 3.5 mph - N/A   Clear
11:53 AM 66.9 °F 48.9 °F 52% 30.11 in 10.0 mi NE 5.8 mph - N/A   Clear
12:53 PM 70.0 °F 48.0 °F 46% 30.09 in 10.0 mi Calm Calm - N/A   Clear
1:53 PM 72.0 °F 43.0 °F 35% 30.07 in 10.0 mi Calm Calm - N/A   Clear
2:53 PM 73.9 °F 45.0 °F 35% 30.05 in 10.0 mi Calm Calm - N/A   Clear
3:53 PM 75.0 °F 46.9 °F 37% 30.05 in 10.0 mi Calm Calm - N/A   Clear
4:53 PM 75.0 °F 50.0 °F 41% 30.04 in 10.0 mi NE 6.9 mph - N/A   Clear
5:53 PM 73.9 °F 51.1 °F 45% 30.04 in 10.0 mi NE 4.6 mph - N/A   Clear
6:53 PM 70.0 °F 54.0 °F 57% 30.04 in 10.0 mi ENE 8.1 mph - N/A   Clear
7:53 PM 64.0 °F 54.0 °F 70% 30.06 in 10.0 mi ENE 6.9 mph - N/A   Clear
8:53 PM 62.1 °F 53.1 °F 72% 30.06 in 10.0 mi ENE 9.2 mph - N/A   Unknown
9:53 PM 59.0 °F 54.0 °F 83% 30.06 in 10.0 mi ENE 8.1 mph - N/A   Unknown
10:53 PM 57.9 °F 54.0 °F 87% 30.05 in 8.0 mi East 6.9 mph - N/A   Unknown
11:53 PM 55.9 °F 53.1 °F 90% 30.05 in 10.0 mi East 3.5 mph - N/A   Clear